Regional Weather Roundup
Issued by NWS

Home | Current Version | Previous Version | Text Only | Print | Product List | Glossary On
Versions: 1 2 3 4 5 6 7 8 9 10 11 12 13 14 15 16 17 18 19 20 21 22 23 24 25 26 27 28 29 30 31 32 33 34 35 36 37 38 39 40 41 42 43 44 45 46 47 48 49 50
659
ASUS44 KJAN 221803
RWRMS

MISSISSIPPI HOURLY WEATHER ROUNDUP
NATIONAL WEATHER SERVICE JACKSON MS
1200 PM CST SAT NOV 22 2014

NOTE: "FAIR: INDICATES FEW OR NO CLOUDS BELOW 12,000 FEET WITH NO
SIGNIFICANT WEATHER AND/OR OBSTRUCTIONS TO VISIBILITY.

MSZ001>002-007>008-010>013-018>021-025>028-034>036-221900-
NORTHWEST MISSISSIPPI

CITY           SKY/WX    TMP DP  RH WIND       PRES   REMARKS
CLARKSDALE     CLOUDY    61  46  59 SE10      30.18F
CLEVELAND      CLOUDY    64  48  55 MISG      30.15F
GREENWOOD      PTSUNNY   68  42  38 S13G22    30.17F
6HR MIN TEMP:  54; 6HR MAX TEMP:  70; 6HR PCP: TRACE;

GREENVILLE     MOSUNNY   67  47  48 SE12      30.15F
6HR MIN TEMP:  53; 6HR MAX TEMP:  67;

GRENADA        CLOUDY    64  43  45 S14       30.19F
OLIVE BRANCH   PTSUNNY   61  43  51 S10       30.19F
OXFORD         FAIR      59  39  47 SE8       30.21F
TUNICA         CLOUDY    61  45  55 SE9       30.18F
$$

MSZ003>006-009-014>017-022>024-029>033-037>039-221900-
NORTHEAST MISSISSIPPI

CITY           SKY/WX    TMP DP  RH WIND       PRES   REMARKS
COLUMBUS AFB   MOSUNNY   66  37  34 SE15G22   30.23F
6HR MIN TEMP:  43; 6HR MAX TEMP:  66; 6HR PCP: TRACE;

CORINTH        FAIR      64  36  34 S13G22    30.22F
GOLDN TRIANGLE MOSUNNY   64  39  39 S16       30.23F
STARKVILLE     FAIR      64  39  39 SE10G17   30.22F
TUPELO         LGT RAIN  63  38  39 S16G22    30.22F
6HR MIN TEMP:  44; 6HR MAX TEMP:  64; 6HR PCP: TRACE;

$$

MSZ040-058-221900-
CENTRAL MISSISSIPPI

CITY           SKY/WX    TMP DP  RH WIND       PRES   REMARKS
JACKSON INTL   PTSUNNY   68  47  46 SE15      30.17F
6HR MIN TEMP:  46; 6HR MAX TEMP:  69;

JACKSON HAWKNS PTSUNNY   68  47  46 SE10      30.17F
6HR MIN TEMP:  50; 6HR MAX TEMP:  68;

MERIDIAN KEY   PTSUNNY   67  44  43 SE7       30.21F
6HR MIN TEMP:  39; 6HR MAX TEMP:  67;

MERIDIAN NAS   PTSUNNY   66  44  45 SE6       30.23F
RAYMOND        FAIR      68  64  88 SE13G22   30.17F
VICKSBURG      PTSUNNY   70  52  52 SE15      30.14F
6HR MIN TEMP:  53; 6HR MAX TEMP:  70;

$$

MSZ059>079-221900-
SOUTH MISSISSIPPI

CITY           SKY/WX    TMP DP  RH WIND       PRES   REMARKS
BROOKHAVEN     FAIR      68  54  60 E8        30.17F
HATTIESBURG    CLOUDY    67  46  47 VRB6      30.18F
6HR MIN TEMP:  39; 6HR MAX TEMP:  67;

MCCOMB         PTSUNNY   67  53  61 SE14G23   30.15F
6HR MIN TEMP:  50; 6HR MAX TEMP:  68;

NATCHEZ        PTSUNNY   68  55  64 SE12      30.15F
6HR MIN TEMP:  55; 6HR MAX TEMP:  68;

PINE BELT      CLOUDY    66  46  48 SE8       30.19F
6HR MIN TEMP:  46; 6HR MAX TEMP:  66;

$$

MSZ080>082-221900-
COASTAL MISSISSIPPI

CITY           SKY/WX    TMP DP  RH WIND       PRES   REMARKS
BAY ST LOUIS   SUNNY     66  54  63 E12G23    30.17F
BILOXI         PTSUNNY   69  56  64 E16       30.17F
6HR MIN TEMP:  53; 6HR MAX TEMP:  70;

PASCAGOULA     PTSUNNY   69  55  60 SE15G25   30.19F
6HR MIN TEMP:  49; 6HR MAX TEMP:  70;

GULFPORT       CLOUDY    67  56  67 E18       30.17F
6HR MIN TEMP:  52; 6HR MAX TEMP:  69;

$$



USA.gov is the U.S. government's official web portal to all federal, state and local government web resources and services.